This is the latest recevied weather packets stored in our database for station/object VE1AIC-4. If no packets are shown the sender has not sent any weather packets the latest 10 day(s).
| Time | Temp. | Humidity | Pressure | Rain* | Wind** | Luminosity | Snow |
|---|---|---|---|---|---|---|---|
| 1778002876 | 21.67° C | 47% | 1007.3 hPa | 0 mm | - | 678 W/m² | - |
| 1778001058 | 21.11° C | 51% | 1007.4 hPa | 0 mm | - | 654 W/m² | - |
| 1777995633 | 15.56° C | 69% | 1007.9 hPa | 0 mm | - | 729 W/m² | - |
| 1777995043 | 14.44° C | 70% | 1008.2 hPa | 0 mm | - | 703 W/m² | - |
| 1777993277 | 13.33° C | 74% | 1008.1 hPa | 0 mm | - | 703 W/m² | - |
| 1777991447 | 11.11° C | 77% | 1008.3 hPa | 0 mm | - | 657 W/m² | - |
| 1777989653 | 11.67° C | 77% | 1008.3 hPa | 0 mm | - | 589 W/m² | - |
| 1777988534 | 13.33° C | 74% | 1008.3 hPa | 0 mm | - | 541 W/m² | - |
| 1777983056 | 10° C | 78% | 1008.6 hPa | 0 mm | - | 256 W/m² | - |
| 1777975297 | 6.67° C | 90% | 1008 hPa | 0 mm | - | 47 W/m² | - |
| 1777969221 | 5° C | 92% | 1007.4 hPa | 0 mm | - | 0 W/m² | - |
| 1777966244 | 5.56° C | 91% | 1007.3 hPa | 0 mm | - | 0 W/m² | - |
| 1777965667 | 5.56° C | 90% | 1006.9 hPa | 0 mm | - | 0 W/m² | - |
| 1777964467 | 5.56° C | 91% | 1006.8 hPa | 0 mm | - | 0 W/m² | - |
| 1777961441 | 6.11° C | 89% | 1006.2 hPa | 0 mm | - | 0 W/m² | - |
| 1777953627 | 6.67° C | 87% | 1004.8 hPa | 0 mm | - | 0 W/m² | - |
| 1777950627 | 7.22° C | 84% | 1004.1 hPa | 0 mm | - | 0 W/m² | - |
| 1777947094 | 7.78° C | 83% | 1003.3 hPa | 0 mm | - | 0 W/m² | - |
| 1777946445 | 7.78° C | 82% | 1003.2 hPa | 0 mm | - | 0 W/m² | - |
| 1777939832 | 8.33° C | 76% | 1001.5 hPa | 0 mm | - | 0 W/m² | - |
| 1777937445 | 9.44° C | 72% | 1000.7 hPa | 0 mm | - | 2 W/m² | - |
| 1777936825 | 8.89° C | 71% | 1000.6 hPa | 0 mm | - | 3 W/m² | - |
| 1777932021 | 11.11° C | 57% | 999.8 hPa | 0 mm | - | 62 W/m² | - |
| 1777929077 | 11.67° C | 57% | 999.5 hPa | 0 mm | - | 124 W/m² | - |
| 1777923651 | 13.89° C | 51% | 998.7 hPa | 0 mm | - | 453 W/m² | - |
* Rain latest hour (hover to see other rain measurements)
** Current wind speed in m/s (hover to see current wind gust speed)